Location: Fours
(44.3167°N, 6.7000°E)
Time: 22:09:47
(UTC+00:00)

Cosmos 1908 - Pass Details

Date: 16 October 2021
Orbit: 509 x 528 km, 82.5° (Epoch: 29 November)

Event Time Altitude Azimuth Distance (km) Brightness Sun altitude
Rises 17:39:26 0° 174° (S) 2,654 6.8 -10.1°
Reaches altitude 10° 17:41:36 10° 169° (S) 1,768 5.8 -10.5°
Maximum altitude 17:45:21 49° 94° (E) 684 3.4 -11.1°
Drops below altitude 10° 17:49:08 10° 19° (NNE) 1,775 5.7 -11.8°
Sets 17:51:19 0° 14° (NNE) 2,666 6.7 -12.2°
